This is the latest recevied weather packets stored in our database for station/object N3WMC. If no packets are shown the sender has not sent any weather packets the latest 1 day(s).
| Time | Temp. | Humidity | Pressure | Rain* | Wind** | Luminosity | Snow |
|---|---|---|---|---|---|---|---|
| 1778031039 | 20° C | 50% | 1008.3 hPa | 0 mm | 0.45 m/s, 324° | 0 W/m² | - |
| 1778030735 | 20.56° C | 50% | 1008.3 hPa | 0 mm | 0.45 m/s, 324° | 0 W/m² | - |
| 1778030432 | 20.56° C | 50% | 1008.3 hPa | 0 mm | 0.45 m/s, 324° | 0 W/m² | - |
| 1778030130 | 20.56° C | 50% | 1008.3 hPa | 0 mm | 0 m/s | 0 W/m² | - |
| 1778029826 | 20.56° C | 50% | 1008.2 hPa | 0 mm | 0.45 m/s, 333° | 0 W/m² | - |
| 1778029525 | 20.56° C | 50% | 1008.1 hPa | 0 mm | 0 m/s | 0 W/m² | - |
| 1778029221 | 20.56° C | 49% | 1008.6 hPa | 0 mm | 0 m/s | 0 W/m² | - |
| 1778028918 | 21.11° C | 48% | 1008.4 hPa | 0 mm | 0.45 m/s, 298° | 0 W/m² | - |
| 1778028614 | 21.11° C | 48% | 1008.5 hPa | 0 mm | 0.45 m/s, 328° | 0 W/m² | - |
| 1778028312 | 21.11° C | 49% | 1008.5 hPa | 0 mm | 1.34 m/s, 292° | 0 W/m² | - |
| 1778028008 | 21.11° C | 48% | 1008.8 hPa | 0 mm | 0.45 m/s, 321° | 0 W/m² | - |
| 1778027705 | 21.11° C | 47% | 1008.6 hPa | 0 mm | 0.45 m/s, 326° | 0 W/m² | - |
| 1778027401 | 21.11° C | 47% | 1008.6 hPa | 0 mm | 0.45 m/s, 299° | 0 W/m² | - |
| 1778027096 | 21.11° C | 47% | 1008.7 hPa | 0 mm | 0.89 m/s, 315° | 1 W/m² | - |
| 1778026792 | 21.67° C | 47% | 1008.6 hPa | 0 mm | 0.45 m/s, 338° | 1 W/m² | - |
| 1778026489 | 21.67° C | 46% | 1008.7 hPa | 0 mm | 2.24 m/s, 250° | 2 W/m² | - |
| 1778026187 | 21.67° C | 46% | 1008.6 hPa | 0 mm | 0.89 m/s, 257° | 3 W/m² | - |
| 1778025884 | 21.67° C | 46% | 1008.6 hPa | 0 mm | 1.79 m/s, 294° | 4 W/m² | - |
| 1778025581 | 21.67° C | 46% | 1008.6 hPa | 0 mm | 1.34 m/s, 257° | 5 W/m² | - |
| 1778025279 | 21.67° C | 45% | 1008.4 hPa | 0 mm | 2.24 m/s, 276° | 6 W/m² | - |
| 1778024975 | 21.67° C | 45% | 1008.2 hPa | 0 mm | 1.34 m/s, 24° | 10 W/m² | - |
| 1778024673 | 21.67° C | 45% | 1008.4 hPa | 0 mm | 1.34 m/s, 266° | 14 W/m² | - |
| 1778024369 | 22.22° C | 45% | 1008.4 hPa | 0 mm | 1.34 m/s, 302° | 13 W/m² | - |
| 1778024067 | 21.67° C | 50% | 1008.2 hPa | 0 mm | 1.79 m/s, 258° | 13 W/m² | - |
| 1778023765 | 21.67° C | 52% | 1008.2 hPa | 0 mm | 0 m/s | 15 W/m² | - |
* Rain latest hour (hover to see other rain measurements)
** Current wind speed in m/s (hover to see current wind gust speed)